Location: Paris
(48.6709°N, 2.3750°E)
Time: 15:17:08
(UTC+02:00)

LO-87 - Pass Details

Date: 01 July 2022
Orbit: 451 x 466 km, 97.4° (Epoch: 08 August)

Event Time Altitude Azimuth Distance (km) Brightness Sun altitude
Exits shadow 02:00:12 26° 248° (WSW) 935 ? -18.2°
Maximum altitude 02:00:43 28° 264° (W) 909 ? -18.2°
Drops below altitude 10° 02:03:45 10° 325° (NW) 1,622 ? -18.2°
Sets 02:06:01 0° 338° (NNW) 2,507 ? -18.2°
